Regional Weather Roundup
Issued by NWS

Home | Current Version | Previous Version | Graphics & Text | Print | Product List | Glossary On
Versions: 1 2 3 4 5 6 7 8 9 10 11 12 13 14 15 16 17 18 19 20 21 22 23 24 25 26 27 28 29 30 31 32 33 34 35 36 37 38 39 40 41 42 43 44 45 46 47 48 49 50
000
ASUS45 KSLC 072110
RWRUT

UTAH REGIONAL WEATHER ROUNDUP
NATIONAL WEATHER SERVICE SALT LAKE CITY UT
200 PM MST WED DEC 07 2016

UTZ001>011-023>025-072200-

NORTHERN UTAH

CITY           SKY/WX    TMP DP  RH WIND       PRES   REMARKS
BRIGHAM CITY     N/A     27   6  40 W5        30.29R WCI  22
DUGWAY         MOSUNNY   29   8  42 W8        30.27F WCI  21
HILL AFB       MOSUNNY   24   8  51 SW5       30.25R WCI  18
LOGAN          MOSUNNY   26   8  46 VRB3      30.27S
OGDEN          PTSUNNY   24  13  62 S7        30.26R WCI  16
SALT LAKE CITY MOSUNNY   28  12  51 NW6       30.28R WCI  22
TOOELE VALLEY  SUNNY     27  18  69 N6        30.28S WCI  20
WENDOVER       SUNNY     27   7  43 SE3       30.28F
HEBER CITY     PTSUNNY   27   5  39 W3        30.17R
WEST JORDAN    MOSUNNY   25  19  75 NW9       30.26S WCI  16

$$

UTZ011>015-024>027-072200-

CENTRAL/NORTHEAST UTAH

CITY           SKY/WX    TMP DP  RH WIND       PRES   REMARKS
PROVO AIRPORT  SUNNY     27  11  51 W5        30.26S WCI  22
MOAB/CANYONLAN SUNNY     36  -4  18 N16       30.15S WCI  26
DELTA          SUNNY     30   5  34 N5        30.23S WCI  25
PRICE          SUNNY     28 -12  17 NW14      30.13S WCI  17
ROOSEVELT      PTSUNNY   32  -4  21 E12       30.16S WCI  23
VERNAL         CLOUDY    29   0  28 VRB5      30.16S WCI  24

$$

UTZ013>016-019>022-027-072200-

SOUTHERN UTAH

CITY           SKY/WX    TMP DP  RH WIND       PRES   REMARKS
BRYCE CANYON   SUNNY     25   3  38 CALM      30.07S
CEDAR CITY     SUNNY     34   6  31 N8        30.11F WCI  27
MILFORD        SUNNY     31  12  45 N16       30.18F WCI  20
ST GEORGE      CLEAR     46  10  23 CALM      30.16F
HANKSVILLE     SUNNY     37   3  23 NW6G17    30.19S WCI  33
BLANDING       SUNNY     33  -1  22 N8        30.16S WCI  26

$$

REGIONAL REPORTS     COLORADO/ARIZONA

CITY           SKY/WX    TMP DP  RH WIND       PRES   REMARKS
CRAIG, CO      PTSUNNY   18   3  52 W10       30.17R WCI   6
GRAND JUNCTION CLOUDY    33   6  32 N14       30.15R WCI  23
RIFLE, CO      CLOUDY    27  10  49 NW13G18   30.15R WCI  16
MONTROSE, CO   SUNNY     29   4  34 CALM      30.13F
CORTEZ, CO     SUNNY     34   0  23 N10G20    30.08S WCI  26
COLORADO CITY    N/A     43   9  24 CALM      30.12F
PAGE, AZ       SUNNY     43   6  21 NE9       30.11S
GRAND CANYON   MOSUNNY   41  22  46 VRB7      30.06F
KINGMAN, AZ    SUNNY     51   9  18 N12       30.08F
FLAGSTAFF, AZ  MOSUNNY   42  26  53 S9        30.04S

$$

REGIONAL REPORTS    NEVADA/IDAHO/WYOMING

CITY           SKY/WX    TMP DP  RH WIND       PRES   REMARKS
LAS VEGAS, NV  PTSUNNY   53   6  15 NE9       30.14F
ELY, NY        SUNNY     27  -1  30 N6        30.13F WCI  20
ELKO, NV       SUNNY     27   5  39 VRB3      30.19F
POCATELLO, ID  FLURRIES  22  13  68 CALM      30.30S
BURLEY, ID     SUNNY     20  13  74 W5        30.29S WCI  13
FORT BRIDGER,    N/A     17   3  54 NW7       30.15S WCI   7
EVANSTON, WY   SUNNY     15   1  53 VRB7      30.11S WCI   5
ROCK SPRINGS,  SUNNY     10   2  69 W3        30.13S

$$



USA.gov is the U.S. government's official web portal to all federal, state and local government web resources and services.